User: anonymous   Login
Location: Unspecified
(0.0000°N, 0.0000°E)
Time: 23:48:28
(UTC+00:00)
Language:

Kosmos-1092 - Orbit

View from above orbital plane
View from above orbital plane
View from above satellite
View from above satellite

Ground track
Ground track

The orbit data is extracted from the following two-line orbital elements,

1 11326U 79030A   18114.97505749 +.00000026 +00000-0 +10594-4 0  9994
2 11326 082.9465 089.6017 0030319 125.7748 293.5168 13.75358175193394
Epoch (UTC): 24 April 2018 23:24:04
Eccentricity: 0.0030319
inclination: 82.9465°
perigee height: 958 km
apogee height: 1003 km
right ascension of ascending node: 89.6017°
argument of perigee: 125.7748°
revolutions per day: 13.75358175
mean anomaly at epoch: 293.5168°
orbit number at epoch: 19339

The dashed part of the orbit path shows where the satellite is in the earth's shadow,  

DLR